Location: Allos
(44.2333°N, 6.6333°E)
Time: 16:42:52
(UTC+00:00)

Cosmos 2228 Rocket - Pass Details

Date: 28 April 2021
Orbit: 618 x 652 km, 82.5° (Epoch: 10 May)

Event Time Altitude Azimuth Distance (km) Brightness Sun altitude
Exits shadow 21:52:52 11° 55° (NE) 1,944 5.7 -27.2°
Drops below altitude 10° 21:53:01 10° 54° (NE) 1,973 5.7 -27.2°
Sets 21:56:18 0° 28° (NNE) 2,908 7.0 -27.5°
